User: anonymous   Login
Location: Unspecified
(0.0000°N, 0.0000°E)
Time: 22:22:39
(UTC+00:00)
Language:

STARLINK-32432 - Orbit

View from above orbital plane
View from above orbital plane
View from above satellite
View from above satellite

Ground track
Ground track

The orbit is defined by the following mean orbital elements,

1 61257U          26145.43808299 +.00000000 +00000-0 +18656-3 0 00004
2 61257  53.1602 197.5875 0000900  74.8561 285.2539 15.30243170    02
Epoch (UTC): 25 May 2026 10:30:50
Eccentricity: 0.0000900
inclination: 53.1602°
perigee height: 474 km
apogee height: 476 km
right ascension of ascending node: 197.5875°
argument of perigee: 74.8561°
revolutions per day: 15.30243170
mean anomaly at epoch: 285.2539°

The dashed part of the orbit path shows where the satellite is in the earth's shadow,  

DLR